| time (UTC) | temp F | wind direction | speed knots | gust knots | rain 1hr in | rain 24hr in | rain mn in | humidity % | barometer mb |
| 20260906124203 | 65 | 294 | 0.0 | 0.9 | 0.00 | 0.00 | 0.00 | 89 | 1021.5 |
| 20260906123701 | 65 | 359 | 0.0 | 0.0 | 0.00 | 0.00 | 0.00 | 92 | 1021.6 |
| 20260906123157 | 63 | 328 | 0.0 | 0.0 | 0.00 | 0.00 | 0.00 | 96 | 1021.5 |
| 20260906122656 | 62 | 308 | 0.0 | 0.0 | 0.00 | 0.00 | 0.00 | 98 | 1021.4 |
| 20260906122152 | 60 | 306 | 0.0 | 0.0 | 0.00 | 0.00 | 0.00 | 98 | 1021.3 |
| 20260906121648 | 60 | 330 | 0.0 | 0.0 | 0.00 | 0.00 | 0.00 | 99 | 1021.2 |
| 20260906121144 | 58 | 318 | 0.0 | 0.0 | 0.00 | 0.00 | 0.00 | 99 | 1021.3 |
| 20260906120640 | 58 | 324 | 0.0 | 0.0 | 0.00 | 0.00 | 0.00 | 99 | 1021.2 |
| 20260906120137 | 57 | 324 | 0.0 | 0.0 | 0.00 | 0.00 | 0.00 | 99 | 1021.3 |
| 20260906115637 | 57 | 323 | 0.0 | 0.0 | 0.00 | 0.00 | 0.00 | 99 | 1021.3 |
| 20260906115132 | 57 | 329 | 0.0 | 0.0 | 0.00 | 0.00 | 0.00 | 99 | 1021.1 |
| 20260906114631 | 57 | 329 | 0.0 | 0.0 | 0.00 | 0.00 | 0.00 | 99 | 1021.0 |
| 20260906114126 | 57 | 328 | 0.0 | 0.0 | 0.00 | 0.00 | 0.00 | 99 | 1020.9 |
| 20260906113626 | 57 | 328 | 0.0 | 0.0 | 0.00 | 0.00 | 0.00 | 98 | 1021.0 |
| 20260906113121 | 57 | 328 | 0.0 | 0.0 | 0.00 | 0.00 | 0.00 | 98 | 1020.8 |
| 20260906112620 | 57 | 328 | 0.0 | 0.0 | 0.00 | 0.00 | 0.00 | 98 | 1020.7 |
| 20260906112118 | 57 | 328 | 0.0 | 0.0 | 0.00 | 0.00 | 0.00 | 98 | 1020.7 |
| 20260906111616 | 56 | 328 | 0.0 | 0.0 | 0.00 | 0.00 | 0.00 | 98 | 1020.8 |
| 20260906111112 | 56 | 328 | 0.0 | 0.0 | 0.00 | 0.00 | 0.00 | 98 | 1020.5 |
| 20260906110612 | 56 | 328 | 0.0 | 0.0 | 0.00 | 0.00 | 0.00 | 98 | 1020.8 |
| 20260906110106 | 56 | 329 | 0.0 | 0.0 | 0.00 | 0.00 | 0.00 | 98 | 1020.8 |
| 20260906105601 | 56 | 332 | 0.0 | 0.0 | 0.00 | 0.00 | 0.00 | 98 | 1020.7 |
| 20260906105057 | 56 | 332 | 0.0 | 0.0 | 0.00 | 0.00 | 0.00 | 98 | 1020.6 |
| 20260906104556 | 57 | 332 | 0.0 | 0.0 | 0.00 | 0.00 | 0.00 | 98 | 1020.6 |
| 20260906104050 | 57 | 332 | 0.0 | 0.0 | 0.00 | 0.00 | 0.00 | 98 | 1020.6 |
| 20260906103548 | 57 | 332 | 0.0 | 0.0 | 0.00 | 0.00 | 0.00 | 98 | 1020.8 |
| 20260906103044 | 57 | 321 | 0.0 | 0.0 | 0.00 | 0.00 | 0.00 | 97 | 1020.8 |
| 20260906102543 | 57 | 322 | 0.0 | 0.0 | 0.00 | 0.00 | 0.00 | 97 | 1020.7 |
| 20260906102039 | 57 | 322 | 0.0 | 0.0 | 0.00 | 0.00 | 0.00 | 97 | 1020.5 |
| 20260906101533 | 57 | 322 | 0.0 | 0.0 | 0.00 | 0.00 | 0.00 | 97 | 1020.7 |
| 20260906101028 | 57 | 322 | 0.0 | 0.0 | 0.00 | 0.00 | 0.00 | 97 | 1020.6 |
| 20260906100524 | 57 | 321 | 0.0 | 0.0 | 0.00 | 0.00 | 0.00 | 97 | 1020.7 |
| 20260906100024 | 58 | 326 | 0.0 | 0.0 | 0.00 | 0.00 | 0.00 | 97 | 1020.7 |
| 20260906095519 | 58 | 325 | 0.0 | 0.0 | 0.00 | 0.00 | 0.00 | 97 | 1020.4 |
| 20260906095014 | 57 | 326 | 0.0 | 0.0 | 0.00 | 0.00 | 0.00 | 96 | 1020.4 |
| 20260906094513 | 58 | 326 | 0.0 | 0.0 | 0.00 | 0.00 | 0.00 | 96 | 1020.4 |
| 20260906094009 | 58 | 326 | 0.0 | 0.0 | 0.00 | 0.00 | 0.00 | 96 | 1020.7 |
| 20260906093505 | 58 | 326 | 0.0 | 0.0 | 0.00 | 0.00 | 0.00 | 96 | 1020.3 |
| 20260906093000 | 58 | 328 | 0.0 | 0.0 | 0.00 | 0.00 | 0.00 | 96 | 1020.5 |
| 20260906092500 | 58 | 326 | 0.0 | 0.0 | 0.00 | 0.00 | 0.00 | 96 | 1020.4 |
| 20260906091954 | 58 | 326 | 0.0 | 0.0 | 0.00 | 0.00 | 0.00 | 95 | 1020.4 |
| 20260906091450 | 58 | 326 | 0.0 | 0.0 | 0.00 | 0.00 | 0.00 | 95 | 1020.5 |
| 20260906090947 | 58 | 326 | 0.0 | 0.0 | 0.00 | 0.00 | 0.00 | 95 | 1020.4 |
| 20260906090442 | 58 | 326 | 0.0 | 0.0 | 0.00 | 0.00 | 0.00 | 94 | 1020.4 |
| 20260906085942 | 59 | 326 | 0.0 | 0.0 | 0.00 | 0.00 | 0.00 | 94 | 1020.5 |
| 20260906085441 | 59 | 326 | 0.0 | 0.0 | 0.00 | 0.00 | 0.00 | 94 | 1020.3 |
| 20260906084940 | 59 | 326 | 0.0 | 0.0 | 0.00 | 0.00 | 0.00 | 94 | 1020.2 |
| 20260906084435 | 60 | 326 | 0.0 | 0.0 | 0.00 | 0.00 | 0.00 | 93 | 1020.1 |
| 20260906083934 | 60 | 326 | 0.0 | 0.0 | 0.00 | 0.00 | 0.00 | 93 | 1019.9 |
| 20260906083430 | 60 | 326 | 0.0 | 0.0 | 0.00 | 0.00 | 0.00 | 93 | 1019.7 |
| 20260906082929 | 60 | 329 | 0.0 | 0.0 | 0.00 | 0.00 | 0.00 | 93 | 1019.7 |
| 20260906082425 | 60 | 346 | 0.0 | 0.0 | 0.00 | 0.00 | 0.00 | 93 | 1019.6 |
| 20260906081920 | 60 | 330 | 0.0 | 0.0 | 0.00 | 0.00 | 0.00 | 92 | 1019.6 |
| 20260906081415 | 60 | 338 | 0.0 | 0.0 | 0.00 | 0.00 | 0.00 | 92 | 1019.6 |
| 20260906080912 | 61 | 331 | 0.0 | 0.0 | 0.00 | 0.00 | 0.00 | 92 | 1019.9 |
| 20260906080408 | 61 | 27 | 0.0 | 0.9 | 0.00 | 0.00 | 0.00 | 92 | 1019.9 |
| 20260906075907 | 61 | 293 | 0.0 | 0.0 | 0.00 | 0.00 | 0.00 | 92 | 1019.5 |
| 20260906075402 | 61 | 319 | 0.0 | 0.0 | 0.00 | 0.00 | 0.00 | 92 | 1019.6 |
| 20260906074858 | 61 | 332 | 0.0 | 0.0 | 0.00 | 0.00 | 0.00 | 92 | 1019.5 |
| 20260906074357 | 61 | 318 | 0.0 | 0.0 | 0.00 | 0.00 | 0.00 | 92 | 1019.6 |
| 20260906073856 | 61 | 318 | 0.0 | 0.9 | 0.00 | 0.00 | 0.00 | 92 | 1019.6 |
| 20260906073351 | 61 | 324 | 0.0 | 0.0 | 0.00 | 0.00 | 0.00 | 92 | 1019.6 |
| 20260906072848 | 61 | 310 | 0.0 | 0.0 | 0.00 | 0.00 | 0.00 | 92 | 1019.4 |
| 20260906072343 | 61 | 338 | 0.0 | 0.0 | 0.00 | 0.00 | 0.00 | 92 | 1019.4 |
| 20260906071839 | 61 | 319 | 0.0 | 0.0 | 0.00 | 0.00 | 0.00 | 92 | 1019.4 |
| 20260906071334 | 61 | 339 | 0.0 | 0.0 | 0.00 | 0.00 | 0.00 | 92 | 1019.7 |
| 20260906070830 | 61 | 339 | 0.0 | 0.0 | 0.00 | 0.00 | 0.00 | 91 | 1019.4 |
| 20260906070325 | 62 | 324 | 0.0 | 0.0 | 0.00 | 0.00 | 0.00 | 91 | 1019.6 |
| 20260906065820 | 62 | 323 | 0.0 | 0.0 | 0.00 | 0.00 | 0.00 | 91 | 1019.7 |
| 20260906065315 | 62 | 303 | 0.0 | 0.0 | 0.00 | 0.00 | 0.00 | 91 | 1019.4 |
| 20260906064811 | 62 | 324 | 0.0 | 0.0 | 0.00 | 0.00 | 0.00 | 90 | 1019.4 |
| 20260906064307 | 62 | 334 | 0.0 | 0.0 | 0.00 | 0.00 | 0.00 | 90 | 1019.7 |
| 20260906063801 | 62 | 321 | 0.0 | 0.0 | 0.00 | 0.00 | 0.00 | 89 | 1019.7 |
| 20260906063257 | 62 | 309 | 0.0 | 0.9 | 0.00 | 0.00 | 0.00 | 89 | 1019.5 |
| 20260906062752 | 62 | 339 | 0.9 | 0.9 | 0.00 | 0.00 | 0.00 | 89 | 1019.6 |
| 20260906062251 | 62 | 319 | 0.0 | 0.9 | 0.00 | 0.00 | 0.00 | 89 | 1019.6 |
| 20260906061747 | 63 | 321 | 0.0 | 0.0 | 0.00 | 0.00 | 0.00 | 88 | 1019.6 |
| 20260906061243 | 63 | 350 | 0.0 | 0.0 | 0.00 | 0.00 | 0.00 | 87 | 1019.7 |
| 20260906060738 | 63 | 318 | 0.0 | 0.0 | 0.00 | 0.00 | 0.00 | 87 | 1019.6 |
| 20260906060236 | 63 | 334 | 0.0 | 0.0 | 0.00 | 0.00 | 0.00 | 86 | 1019.4 |
| 20260906055731 | 63 | 331 | 0.0 | 0.0 | 0.00 | 0.00 | 0.00 | 86 | 1019.4 |
| 20260906055226 | 64 | 330 | 0.0 | 0.0 | 0.00 | 0.00 | 0.00 | 85 | 1019.2 |
| 20260906054721 | 64 | 346 | 0.0 | 0.0 | 0.00 | 0.00 | 0.00 | 85 | 1019.4 |
| 20260906054216 | 64 | 339 | 0.0 | 0.0 | 0.00 | 0.00 | 0.00 | 85 | 1019.5 |
| 20260906053713 | 64 | 341 | 0.0 | 0.0 | 0.00 | 0.00 | 0.00 | 84 | 1019.4 |
| 20260906053208 | 64 | 309 | 0.0 | 0.0 | 0.00 | 0.00 | 0.00 | 84 | 1019.5 |
| 20260906052703 | 64 | 339 | 0.0 | 0.0 | 0.00 | 0.00 | 0.00 | 84 | 1019.3 |
| 20260906052159 | 65 | 340 | 0.0 | 0.0 | 0.00 | 0.00 | 0.00 | 83 | 1019.1 |
| 20260906051656 | 65 | 321 | 0.0 | 0.0 | 0.00 | 0.00 | 0.00 | 83 | 1019.1 |
| 20260906051155 | 65 | 322 | 0.0 | 0.0 | 0.00 | 0.00 | 0.00 | 82 | 1019.2 |
| 20260906050651 | 66 | 304 | 0.0 | 0.0 | 0.00 | 0.00 | 0.00 | 81 | 1019.1 |
| 20260906050146 | 66 | 315 | 0.0 | 0.0 | 0.00 | 0.00 | 0.00 | 81 | 1019.2 |
| 20260906045644 | 66 | 311 | 0.0 | 0.0 | 0.00 | 0.00 | 0.00 | 80 | 1019.2 |
| 20260906045140 | 66 | 17 | 0.0 | 0.0 | 0.00 | 0.00 | 0.00 | 80 | 1019.3 |
| 20260906044636 | 67 | 67 | 0.0 | 0.0 | 0.00 | 0.00 | 0.00 | 79 | 1018.8 |
| 20260906044131 | 67 | 320 | 0.0 | 0.0 | 0.00 | 0.00 | 0.00 | 79 | 1018.8 |
| 20260906043627 | 67 | 107 | 1.7 | 1.7 | 0.00 | 0.00 | 0.00 | 79 | 1019.1 |
| 20260906043122 | 67 | 236 | 0.9 | 0.9 | 0.00 | 0.00 | 0.00 | 79 | 1019.2 |
| 20260906042621 | 68 | 287 | 0.0 | 0.9 | 0.00 | 0.00 | 0.00 | 79 | 1019.1 |
| 20260906042116 | 68 | 133 | 0.9 | 2.6 | 0.00 | 0.00 | 0.00 | 79 | 1018.7 |
| 20260906041612 | 68 | 110 | 1.7 | 2.6 | 0.00 | 0.00 | 0.00 | 79 | 1018.6 |
| 20260906041111 | 68 | 316 | 0.0 | 0.9 | 0.00 | 0.00 | 0.00 | 80 | 1018.8 |
| 20260906040607 | 68 | 205 | 1.7 | 1.7 | 0.00 | 0.00 | 0.00 | 81 | 1018.5 |
| 20260906035557 | 68 | 307 | 1.7 | 2.6 | 0.00 | 0.00 | 0.00 | 82 | 1018.7 |
| 20260906035053 | 68 | 313 | 0.0 | 0.0 | 0.00 | 0.00 | 0.00 | 83 | 1018.6 |
| 20260906034548 | 68 | 83 | 1.7 | 2.6 | 0.00 | 0.00 | 0.00 | 84 | 1018.4 |
| 20260906034043 | 68 | 300 | 0.0 | 0.0 | 0.00 | 0.00 | 0.00 | 84 | 1018.5 |
| 20260906033538 | 68 | 286 | 0.9 | 1.7 | 0.00 | 0.00 | 0.00 | 83 | 1018.4 |
| 20260906033033 | 68 | 335 | 0.0 | 0.0 | 0.00 | 0.00 | 0.00 | 83 | 1018.2 |
| 20260906032530 | 68 | 14 | 0.0 | 0.0 | 0.00 | 0.00 | 0.00 | 83 | 1018.4 |
| 20260906032024 | 68 | 329 | 0.0 | 0.0 | 0.00 | 0.00 | 0.00 | 82 | 1018.3 |
| 20260906031520 | 69 | 321 | 0.0 | 0.9 | 0.00 | 0.00 | 0.00 | 82 | 1018.6 |
| 20260906031015 | 69 | 291 | 0.0 | 0.0 | 0.00 | 0.00 | 0.00 | 82 | 1018.4 |
| 20260906030514 | 69 | 321 | 0.0 | 0.0 | 0.00 | 0.00 | 0.00 | 82 | 1018.3 |
| 20260906030014 | 69 | 323 | 0.0 | 0.0 | 0.00 | 0.00 | 0.00 | 82 | 1018.2 |
| 20260906025514 | 69 | 319 | 0.0 | 0.0 | 0.00 | 0.00 | 0.00 | 82 | 1018.1 |
| 20260906025012 | 69 | 8 | 0.0 | 0.0 | 0.00 | 0.00 | 0.00 | 81 | 1018.1 |
| 20260906024508 | 69 | 327 | 0.0 | 0.0 | 0.00 | 0.00 | 0.00 | 81 | 1018.1 |
| 20260906024008 | 70 | 317 | 0.0 | 0.0 | 0.00 | 0.00 | 0.00 | 81 | 1018.0 |
| 20260906023504 | 70 | 317 | 0.0 | 0.0 | 0.00 | 0.00 | 0.00 | 80 | 1018.1 |
| 20260906022959 | 70 | 218 | 0.9 | 1.7 | 0.00 | 0.00 | 0.00 | 80 | 1018.0 |
| 20260906022454 | 70 | 322 | 0.0 | 0.0 | 0.00 | 0.00 | 0.00 | 81 | 1017.9 |
| 20260906021949 | 71 | 11 | 1.7 | 1.7 | 0.00 | 0.00 | 0.00 | 81 | 1017.8 |
| 20260906021444 | 71 | 316 | 0.0 | 0.0 | 0.00 | 0.00 | 0.00 | 80 | 1017.8 |
| 20260906020938 | 71 | 321 | 0.0 | 0.0 | 0.00 | 0.00 | 0.00 | 80 | 1017.9 |
| 20260906020432 | 71 | 300 | 0.0 | 0.9 | 0.00 | 0.00 | 0.00 | 80 | 1017.7 |
| 20260906015927 | 72 | 323 | 0.0 | 0.0 | 0.00 | 0.00 | 0.00 | 80 | 1017.7 |
| 20260906015421 | 72 | 330 | 0.0 | 0.0 | 0.00 | 0.00 | 0.00 | 79 | 1018.0 |
| 20260906014921 | 72 | 308 | 0.0 | 0.0 | 0.00 | 0.00 | 0.00 | 79 | 1017.7 |
| 20260906014420 | 73 | 331 | 0.0 | 0.0 | 0.00 | 0.00 | 0.00 | 79 | 1017.6 |
| 20260906013917 | 73 | 256 | 0.9 | 0.9 | 0.00 | 0.00 | 0.00 | 79 | 1017.7 |
| 20260906013412 | 73 | 231 | 0.0 | 0.0 | 0.00 | 0.00 | 0.00 | 79 | 1017.5 |
| 20260906012908 | 73 | 283 | 0.0 | 0.9 | 0.00 | 0.00 | 0.00 | 79 | 1017.6 |
| 20260906012403 | 73 | 308 | 0.9 | 1.7 | 0.00 | 0.00 | 0.00 | 80 | 1017.3 |
| 20260906011902 | 74 | 316 | 0.9 | 1.7 | 0.00 | 0.00 | 0.00 | 80 | 1017.6 |
| 20260906011356 | 74 | 316 | 0.0 | 0.0 | 0.00 | 0.00 | 0.00 | 80 | 1017.3 |
| 20260906010852 | 74 | 347 | 0.9 | 0.9 | 0.00 | 0.00 | 0.00 | 80 | 1017.2 |
| 20260906010348 | 74 | 311 | 0.9 | 0.9 | 0.00 | 0.00 | 0.00 | 81 | 1017.3 |
| 20260906005844 | 74 | 319 | 1.7 | 1.7 | 0.00 | 0.00 | 0.00 | 81 | 1017.2 |
| 20260906005343 | 74 | 8 | 0.9 | 1.7 | 0.00 | 0.00 | 0.00 | 82 | 1017.1 |
| 20260906004842 | 74 | 294 | 0.9 | 1.7 | 0.00 | 0.00 | 0.00 | 82 | 1017.0 |
| 20260906004336 | 74 | 94 | 0.9 | 1.7 | 0.00 | 0.00 | 0.00 | 81 | 1017.1 |
| 20260906003831 | 74 | 325 | 0.9 | 0.9 | 0.00 | 0.00 | 0.00 | 81 | 1016.9 |
| 20260906003326 | 75 | 18 | 0.9 | 0.9 | 0.00 | 0.00 | 0.00 | 81 | 1016.9 |
| 20260906002822 | 75 | 94 | 2.6 | 2.6 | 0.00 | 0.00 | 0.00 | 81 | 1016.8 |
| 20260906002321 | 75 | 326 | 0.0 | 0.9 | 0.00 | 0.00 | 0.00 | 81 | 1016.9 |
| 20260906001818 | 75 | 308 | 0.9 | 1.7 | 0.00 | 0.00 | 0.00 | 81 | 1017.0 |
| 20260906001312 | 75 | 31 | 0.0 | 0.9 | 0.00 | 0.00 | 0.00 | 81 | 1016.8 |
| 20260906000807 | 75 | 346 | 0.0 | 0.9 | 0.00 | 0.00 | 0.00 | 81 | 1017.0 |
| 20260906000303 | 76 | 316 | 0.0 | 0.0 | 0.00 | 0.00 | 0.00 | 81 | 1016.9 |
| 20260905235757 | 76 | 321 | 0.0 | 0.0 | 0.00 | 0.00 | 0.00 | 80 | 1017.1 |
| 20260905235256 | 76 | 300 | 0.0 | 0.0 | 0.00 | 0.00 | 0.00 | 80 | 1017.0 |
| 20260905234752 | 76 | 341 | 0.9 | 0.9 | 0.00 | 0.00 | 0.00 | 79 | 1016.9 |
| 20260905234247 | 77 | 331 | 0.0 | 0.0 | 0.00 | 0.00 | 0.00 | 80 | 1017.1 |
| 20260905233743 | 77 | 315 | 0.0 | 0.0 | 0.00 | 0.00 | 0.00 | 80 | 1016.9 |
| 20260905233242 | 77 | 320 | 0.9 | 1.7 | 0.00 | 0.00 | 0.00 | 81 | 1016.9 |
| 20260905232736 | 77 | 315 | 0.0 | 0.0 | 0.00 | 0.00 | 0.00 | 80 | 1016.9 |
| 20260905232232 | 78 | 300 | 0.0 | 0.0 | 0.00 | 0.00 | 0.00 | 79 | 1017.0 |
| 20260905231728 | 78 | 298 | 0.0 | 0.0 | 0.00 | 0.00 | 0.00 | 78 | 1017.0 |
| 20260905231223 | 78 | 331 | 0.0 | 0.0 | 0.00 | 0.00 | 0.00 | 77 | 1016.8 |
| 20260905230719 | 78 | 289 | 0.0 | 0.0 | 0.00 | 0.00 | 0.00 | 77 | 1016.8 |
| 20260905230217 | 79 | 290 | 0.0 | 0.0 | 0.00 | 0.00 | 0.00 | 77 | 1016.7 |
| 20260905225717 | 79 | 263 | 0.0 | 0.0 | 0.00 | 0.00 | 0.00 | 75 | 1016.6 |
| 20260905225212 | 79 | 301 | 0.0 | 0.0 | 0.00 | 0.00 | 0.00 | 75 | 1016.6 |
| 20260905224711 | 79 | 270 | 0.0 | 0.0 | 0.00 | 0.00 | 0.00 | 75 | 1017.0 |
| 20260905224206 | 79 | 301 | 0.0 | 0.0 | 0.00 | 0.00 | 0.00 | 75 | 1016.9 |
| 20260905223703 | 79 | 309 | 0.0 | 0.9 | 0.00 | 0.00 | 0.00 | 75 | 1016.9 |
| 20260905223159 | 79 | 307 | 0.0 | 0.0 | 0.00 | 0.00 | 0.00 | 74 | 1016.7 |
| 20260905222654 | 79 | 290 | 1.7 | 1.7 | 0.00 | 0.00 | 0.00 | 73 | 1016.7 |
| 20260905222149 | 80 | 307 | 0.9 | 0.9 | 0.00 | 0.00 | 0.00 | 72 | 1016.8 |
| 20260905221644 | 80 | 242 | 0.0 | 0.0 | 0.00 | 0.00 | 0.00 | 74 | 1016.7 |
| 20260905221141 | 79 | 271 | 2.6 | 4.3 | 0.00 | 0.00 | 0.00 | 73 | 1016.6 |
| 20260905220636 | 79 | 45 | 1.7 | 1.7 | 0.00 | 0.00 | 0.00 | 74 | 1016.7 |
| 20260905220132 | 79 | 56 | 3.5 | 7.0 | 0.00 | 0.00 | 0.00 | 75 | 1016.3 |
| 20260905215632 | 79 | 259 | 0.0 | 0.9 | 0.00 | 0.00 | 0.00 | 77 | 1016.3 |
| 20260905215127 | 78 | 282 | 1.7 | 1.7 | 0.00 | 0.00 | 0.00 | 75 | 1016.4 |
| 20260905214623 | 78 | 217 | 1.7 | 1.7 | 0.00 | 0.00 | 0.00 | 76 | 1016.3 |
| 20260905214123 | 78 | 265 | 0.9 | 0.9 | 0.00 | 0.00 | 0.00 | 77 | 1016.4 |
| 20260905213619 | 78 | 357 | 0.9 | 0.9 | 0.00 | 0.00 | 0.00 | 76 | 1016.4 |
| 20260905213114 | 78 | 273 | 0.0 | 0.9 | 0.00 | 0.00 | 0.00 | 76 | 1016.2 |
| 20260905212609 | 78 | 70 | 2.6 | 2.6 | 0.00 | 0.00 | 0.00 | 74 | 1016.3 |
| 20260905212108 | 78 | 58 | 1.7 | 2.6 | 0.00 | 0.00 | 0.00 | 76 | 1016.4 |
| 20260905211604 | 78 | 227 | 1.7 | 1.7 | 0.00 | 0.00 | 0.00 | 75 | 1016.4 |
| 20260905211059 | 78 | 162 | 1.7 | 1.7 | 0.00 | 0.00 | 0.00 | 76 | 1016.3 |
| 20260905210555 | 78 | 338 | 0.9 | 0.9 | 0.00 | 0.00 | 0.00 | 78 | 1016.5 |
| 20260905210050 | 78 | 227 | 0.9 | 1.7 | 0.00 | 0.00 | 0.00 | 80 | 1016.4 |
| 20260905205549 | 78 | 281 | 2.6 | 2.6 | 0.00 | 0.00 | 0.00 | 79 | 1016.2 |
| 20260905205048 | 78 | 274 | 0.9 | 1.7 | 0.00 | 0.00 | 0.00 | 81 | 1016.3 |
| 20260905204543 | 77 | 247 | 2.6 | 2.6 | 0.00 | 0.00 | 0.00 | 80 | 1016.2 |
| 20260905204039 | 78 | 286 | 0.9 | 0.9 | 0.00 | 0.00 | 0.00 | 81 | 1016.3 |
| 20260905203538 | 78 | 296 | 0.0 | 0.9 | 0.00 | 0.00 | 0.00 | 81 | 1016.6 |
| 20260905203034 | 77 | 178 | 1.7 | 1.7 | 0.00 | 0.00 | 0.00 | 81 | 1016.3 |
| 20260905202529 | 77 | 265 | 1.7 | 1.7 | 0.00 | 0.00 | 0.00 | 82 | 1016.6 |
| 20260905202025 | 77 | 304 | 0.9 | 1.7 | 0.00 | 0.00 | 0.00 | 82 | 1016.6 |
| 20260905201520 | 76 | 16 | 0.9 | 1.7 | 0.00 | 0.00 | 0.00 | 83 | 1016.6 |
| 20260905201019 | 76 | 107 | 2.6 | 2.6 | 0.00 | 0.00 | 0.00 | 84 | 1016.7 |
| 20260905200515 | 75 | 141 | 2.6 | 4.3 | 0.00 | 0.00 | 0.00 | 84 | 1016.7 |
| 20260905200014 | 75 | 291 | 0.9 | 0.9 | 0.00 | 0.00 | 0.00 | 85 | 1016.7 |
| 20260905195508 | 75 | 66 | 5.2 | 6.1 | 0.00 | 0.00 | 0.00 | 85 | 1016.6 |
| 20260905195004 | 75 | 0 | 1.7 | 4.3 | 0.00 | 0.00 | 0.00 | 86 | 1016.9 |
| 20260905194458 | 74 | 288 | 0.9 | 0.9 | 0.00 | 0.00 | 0.00 | 87 | 1016.8 |
| 20260905193957 | 74 | 15 | 0.0 | 0.9 | 0.00 | 0.00 | 0.00 | 88 | 1016.8 |
| 20260905193452 | 73 | 284 | 0.9 | 0.9 | 0.00 | 0.00 | 0.00 | 89 | 1016.8 |
| 20260905192947 | 73 | 349 | 0.9 | 0.9 | 0.00 | 0.00 | 0.00 | 90 | 1016.9 |
| 20260905192442 | 73 | 267 | 0.0 | 0.0 | 0.00 | 0.00 | 0.00 | 91 | 1017.0 |
| 20260905191938 | 73 | 281 | 0.9 | 0.9 | 0.00 | 0.00 | 0.00 | 90 | 1017.0 |
| 20260905191432 | 72 | 305 | 1.7 | 2.6 | 0.00 | 0.00 | 0.00 | 91 | 1017.0 |
| 20260905190931 | 72 | 86 | 2.6 | 2.6 | 0.00 | 0.00 | 0.00 | 92 | 1017.0 |
| 20260905190429 | 72 | 95 | 1.7 | 1.7 | 0.00 | 0.00 | 0.00 | 93 | 1017.0 |
| 20260905185928 | 72 | 324 | 0.9 | 0.9 | 0.00 | 0.00 | 0.00 | 94 | 1017.0 |
| 20260905185424 | 71 | 277 | 0.0 | 0.9 | 0.00 | 0.00 | 0.00 | 95 | 1017.0 |
| 20260905184922 | 71 | 359 | 0.9 | 2.6 | 0.00 | 0.00 | 0.00 | 95 | 1016.9 |
| 20260905184417 | 71 | 33 | 0.9 | 2.6 | 0.00 | 0.00 | 0.00 | 95 | 1017.2 |
| 20260905183915 | 71 | 295 | 0.0 | 0.0 | 0.00 | 0.00 | 0.00 | 95 | 1017.1 |
| 20260905183410 | 71 | 336 | 0.9 | 1.7 | 0.00 | 0.00 | 0.00 | 95 | 1017.4 |
| 20260905182905 | 71 | 276 | 0.9 | 0.9 | 0.00 | 0.00 | 0.00 | 94 | 1017.4 |
| 20260905182359 | 72 | 294 | 0.0 | 0.9 | 0.00 | 0.00 | 0.00 | 94 | 1017.4 |
| 20260905181855 | 71 | 292 | 0.0 | 0.9 | 0.00 | 0.00 | 0.00 | 93 | 1017.3 |
| 20260905181355 | 72 | 294 | 0.9 | 0.9 | 0.00 | 0.00 | 0.00 | 92 | 1017.5 |
| 20260905180854 | 71 | 319 | 0.0 | 0.0 | 0.00 | 0.00 | 0.00 | 92 | 1017.2 |
| 20260905180349 | 71 | 320 | 0.0 | 0.0 | 0.00 | 0.00 | 0.00 | 92 | 1017.4 |
| 20260905175843 | 71 | 297 | 0.0 | 0.0 | 0.00 | 0.00 | 0.00 | 92 | 1017.1 |
| 20260905175338 | 71 | 14 | 0.9 | 1.7 | 0.00 | 0.00 | 0.00 | 92 | 1017.2 |
| 20260905174833 | 71 | 344 | 0.9 | 0.9 | 0.00 | 0.00 | 0.00 | 92 | 1017.4 |
| 20260905174329 | 71 | 278 | 0.0 | 0.0 | 0.00 | 0.00 | 0.00 | 92 | 1017.1 |
| 20260905173824 | 71 | 50 | 0.9 | 0.9 | 0.00 | 0.00 | 0.00 | 92 | 1017.1 |
| 20260905173321 | 71 | 10 | 0.9 | 0.9 | 0.00 | 0.00 | 0.00 | 92 | 1017.1 |
| 20260905172821 | 71 | 327 | 2.6 | 4.3 | 0.00 | 0.00 | 0.00 | 92 | 1016.9 |
| 20260905172318 | 71 | 276 | 0.9 | 0.9 | 0.00 | 0.00 | 0.00 | 93 | 1017.0 |
| 20260905171815 | 71 | 271 | 0.9 | 0.9 | 0.00 | 0.00 | 0.00 | 93 | 1017.1 |
| 20260905171311 | 70 | 341 | 0.9 | 1.7 | 0.00 | 0.00 | 0.00 | 93 | 1017.1 |
| 20260905170808 | 70 | 349 | 0.9 | 0.9 | 0.00 | 0.00 | 0.00 | 93 | 1017.1 |
| 20260905170303 | 70 | 312 | 0.9 | 0.9 | 0.00 | 0.00 | 0.00 | 94 | 1017.2 |
| 20260905165802 | 70 | 341 | 1.7 | 1.7 | 0.00 | 0.00 | 0.00 | 94 | 1017.1 |
| 20260905165258 | 70 | 56 | 0.0 | 0.9 | 0.00 | 0.00 | 0.00 | 94 | 1017.1 |
| 20260905164758 | 70 | 296 | 0.9 | 0.9 | 0.00 | 0.00 | 0.00 | 94 | 1016.8 |
| 20260905164253 | 70 | 299 | 0.0 | 0.0 | 0.00 | 0.00 | 0.00 | 95 | 1017.0 |
| 20260905163748 | 70 | 103 | 2.6 | 4.3 | 0.00 | 0.00 | 0.00 | 95 | 1017.0 |
| 20260905163244 | 69 | 340 | 0.9 | 1.7 | 0.00 | 0.00 | 0.00 | 95 | 1016.8 |
| 20260905162740 | 70 | 30 | 1.7 | 1.7 | 0.00 | 0.00 | 0.00 | 95 | 1017.0 |
| 20260905162239 | 70 | 317 | 0.9 | 1.7 | 0.00 | 0.00 | 0.00 | 95 | 1017.1 |
| 20260905161734 | 69 | 334 | 0.9 | 0.9 | 0.00 | 0.00 | 0.00 | 95 | 1017.3 |
| 20260905161232 | 69 | 71 | 3.5 | 4.3 | 0.00 | 0.00 | 0.00 | 95 | 1016.9 |
| 20260905160726 | 69 | 338 | 0.0 | 0.0 | 0.00 | 0.00 | 0.00 | 95 | 1016.8 |
| 20260905160226 | 69 | 304 | 0.0 | 0.0 | 0.00 | 0.00 | 0.00 | 95 | 1017.1 |
| 20260905155720 | 69 | 336 | 0.0 | 0.0 | 0.00 | 0.00 | 0.00 | 95 | 1017.3 |
| 20260905155219 | 69 | 357 | 1.7 | 1.7 | 0.00 | 0.00 | 0.00 | 95 | 1017.1 |
| 20260905154714 | 69 | 321 | 0.0 | 0.0 | 0.00 | 0.00 | 0.00 | 94 | 1017.1 |
| 20260905154209 | 70 | 302 | 0.0 | 0.0 | 0.00 | 0.00 | 0.00 | 94 | 1016.9 |
| 20260905153705 | 69 | 323 | 0.0 | 0.0 | 0.00 | 0.00 | 0.00 | 94 | 1016.9 |
| 20260905153200 | 70 | 355 | 0.0 | 0.9 | 0.00 | 0.00 | 0.00 | 93 | 1016.9 |
| 20260905152655 | 70 | 76 | 0.9 | 1.7 | 0.00 | 0.00 | 0.00 | 93 | 1016.8 |
| 20260905152150 | 70 | 34 | 0.9 | 1.7 | 0.00 | 0.00 | 0.00 | 91 | 1016.7 |
| 20260905151644 | 70 | 55 | 0.0 | 1.7 | 0.00 | 0.00 | 0.00 | 91 | 1016.7 |
| 20260905151140 | 70 | 335 | 0.9 | 0.9 | 0.00 | 0.00 | 0.00 | 90 | 1017.0 |
| 20260905150635 | 70 | 357 | 1.7 | 1.7 | 0.00 | 0.00 | 0.00 | 90 | 1016.7 |
| 20260905150134 | 70 | 19 | 2.6 | 2.6 | 0.00 | 0.00 | 0.00 | 90 | 1016.9 |
| 20260905145632 | 70 | 330 | 0.0 | 0.0 | 0.00 | 0.00 | 0.00 | 90 | 1017.0 |
| 20260905145131 | 70 | 294 | 0.0 | 0.9 | 0.00 | 0.00 | 0.00 | 90 | 1016.9 |
| 20260905144626 | 70 | 84 | 0.9 | 0.9 | 0.00 | 0.00 | 0.00 | 90 | 1016.6 |
| 20260905144125 | 70 | 275 | 1.7 | 2.6 | 0.00 | 0.00 | 0.00 | 89 | 1016.6 |
| 20260905143620 | 70 | 76 | 0.9 | 1.7 | 0.00 | 0.00 | 0.00 | 90 | 1016.5 |
| 20260905143115 | 71 | 329 | 1.7 | 4.3 | 0.00 | 0.00 | 0.00 | 89 | 1016.6 |
| 20260905142613 | 71 | 305 | 0.9 | 0.9 | 0.00 | 0.00 | 0.00 | 90 | 1016.3 |
| 20260905142108 | 71 | 287 | 0.9 | 0.9 | 0.00 | 0.00 | 0.00 | 90 | 1016.6 |
| 20260905141608 | 70 | 300 | 0.0 | 0.0 | 0.00 | 0.00 | 0.00 | 91 | 1016.5 |
| 20260905141104 | 70 | 327 | 0.0 | 0.0 | 0.00 | 0.00 | 0.00 | 91 | 1016.5 |
| 20260905140559 | 70 | 316 | 0.0 | 0.9 | 0.00 | 0.00 | 0.00 | 92 | 1016.5 |
| 20260905140058 | 70 | 325 | 0.0 | 0.9 | 0.00 | 0.00 | 0.00 | 92 | 1016.3 |
| 20260905135554 | 69 | 1 | 0.9 | 0.9 | 0.00 | 0.00 | 0.00 | 92 | 1016.3 |
| 20260905135054 | 69 | 124 | 2.6 | 4.3 | 0.00 | 0.00 | 0.00 | 92 | 1016.1 |
| 20260905134549 | 69 | 44 | 3.5 | 6.1 | 0.00 | 0.00 | 0.00 | 92 | 1016.3 |
| 20260905134047 | 69 | 224 | 1.7 | 1.7 | 0.00 | 0.00 | 0.00 | 93 | 1016.1 |
| 20260905133542 | 69 | 5 | 1.7 | 1.7 | 0.00 | 0.00 | 0.00 | 93 | 1016.1 |
| 20260905133037 | 69 | 314 | 0.0 | 0.0 | 0.00 | 0.00 | 0.00 | 94 | 1016.2 |
| 20260905132537 | 69 | 66 | 1.7 | 2.6 | 0.00 | 0.00 | 0.00 | 94 | 1016.2 |
| 20260905132031 | 69 | 353 | 1.7 | 2.6 | 0.00 | 0.00 | 0.00 | 94 | 1016.1 |
| 20260905131527 | 69 | 9 | 1.7 | 1.7 | 0.00 | 0.00 | 0.00 | 94 | 1016.2 |
| 20260905131022 | 69 | 303 | 0.9 | 0.9 | 0.00 | 0.00 | 0.00 | 95 | 1016.2 |
| 20260905130521 | 69 | 80 | 0.9 | 2.6 | 0.00 | 0.00 | 0.00 | 95 | 1016.1 |
| 20260905130017 | 69 | 333 | 0.9 | 1.7 | 0.00 | 0.00 | 0.00 | 96 | 1016.2 |
| 20260905125516 | 69 | 0 | 0.9 | 0.9 | 0.00 | 0.00 | 0.00 | 96 | 1016.1 |
| 20260905125012 | 69 | 137 | 2.6 | 2.6 | 0.00 | 0.00 | 0.00 | 96 | 1016.2 |